STARLINK-1759, 46340

Orbit data source: Space-Track

STARLINK-1759, 46340 is a payload satellite owned by SpaceX/Seattle (US) in LEO that was launched on Thu, 03 Sep 2020 UTC via an FALCON 9 launch vehicle from the Air Force Eastern Test Range (AFETR). Payload-class satellites include a variety of spacecraft equipped with specific instruments for various scientific and technological missions. These include communications satellites like Starlink; space stations such as the ISS; scientific satellites like the Hubble; Earth observation satellites from companies like Planet Labs, Umbra, and HawkEye 360; GPS; miniature CubeSats for education and research; and military/defense satellites.

Loading next visibility...
Identifier
46340, 2020-062R
Orbit
LEO
Country
Flag of USUS
Related business
Manufacturer
SpaceX/Seattle
Mission
Partially operational Commercial Communications
Bus & Motor
STARLINK, Unknown motor
Mass
260 kg wet, ~248 kg dry
Launch date (UTC)
2020-09-03 (5 years ago)
Launch vehicle
FALCON 9
Launch site
Air Force Eastern Test Range (AFETR)
Object type
Payload
Rocket body
Debris
Shape & HBR
Box + 1 Pan, 10.1 m
Radar Cross Section
13.562 m², Large (>1 m²)

Expand to show TLE details & history
Last TLE update: 5 hours ago

TLE from 5 hours ago
0 STARLINK-1759
1 46340U 20062R   25292.97855518  .00112262  00000-0  41801-2 0  9995
2 46340  53.0338 278.1872 0006747 359.8004   0.2990 15.26587594283239
Epoch: 2025-10-19T23:29Z
TLE epoch observation values (Epoch: 2025-10-19T23:29:07.167Z)
Latitude
-0°
Longitude
-102.78013°
Altitude
482.276 km
Speed
7.628 km/s
True Right ascension
18h 32m 44s
True Declination
0° 00' 00"
Sunlit
Object was in daylight at epoch
Visualization orbit readout
Latitude
Unknown
Longitude
Unknown
Altitude
Unknown
Speed
Unknown
Apparent Right ascension
Unknown
Apparent Declination
Unknown
Sunlit
N/A
Visualization observer readout
Local Sidereal Time
23:14:49
Azimuth
Unknown
Elevation
Unknown
Doppler factor
Unknown
Orbital elements
Apogee altitude
490.93 km
Perigee altitude
481.667 km
Semi-major axis
6,864.436 km
Eccentricity
0.00067
Inclination
53.0338°
RAAN
278.1872°
Arg. of periapsis
359.8004°
True anomaly
0.2994°
Mean anomaly
0.299°
Eccentric anomaly
0.2992°
Mean motion
3.81624 °/min
Orbital period
94.33 mins
BSTAR
0.0041801
Loading maneuver chart data...
Computing Atmospheric mass density...

Documentation

Showing up to 5 results
|